Location: Huesca
(42.1318°N, 0.4078°W)
Time: 13:23:03
(UTC+02:00)

Vanguard 3 - All Passes

Search period start: 19 July 2024 00:00
Search period end: 29 July 2024 00:00
Orbit: 508 x 3230 km, 33.4° (Epoch: 18 July)

Date Brightness Start Highest point End Pass type
(mag) Time Alt. Az. Time Alt. Az. Time Alt. Az.
19 Jul - 00:19:33 10° S 00:28:25 22° SE 00:40:01 10° E visible
19 Jul - 02:26:57 10° SW 02:40:34 49° SSE 02:58:51 10° E visible
19 Jul - 04:38:35 10° WSW 04:55:36 65° S 05:14:35 10° E visible
19 Jul - 06:52:45 10° W 07:11:23 57° SSW 07:27:55 10° SE daylight
19 Jul - 09:09:30 10° W 09:25:11 32° SW 09:37:35 10° SSE daylight
20 Jul - 01:09:46 10° SSW 01:20:53 36° SE 01:36:35 10° E visible
20 Jul - 03:19:35 10° WSW 03:34:28 60° SSE 03:53:40 10° E visible
20 Jul - 05:32:21 10° W 05:50:09 63° S 06:08:32 10° ESE visible
20 Jul - 07:47:25 10° W 08:05:16 45° SSW 08:20:24 10° SE daylight
20 Jul - 10:06:48 10° W 10:17:43 19° SW 10:26:55 10° SSW daylight
20 Jul - 23:54:08 10° S 00:02:13 22° SE 00:13:04 10° E visible
21 Jul - 02:01:29 10° SW 02:14:02 50° SSE 02:31:59 10° E visible
21 Jul - 04:12:47 10° WSW 04:28:47 65° S 04:48:08 10° ESE visible
21 Jul - 06:26:28 10° W 06:44:30 56° SSW 07:01:52 10° SE daylight
21 Jul - 08:42:51 10° W 08:58:31 32° SW 09:11:42 10° SSE daylight
22 Jul - 00:44:25 10° SSW 00:54:35 36° SE 01:09:34 10° E visible
22 Jul - 02:54:02 10° WSW 03:07:48 60° SSE 03:26:53 10° E visible
22 Jul - 05:06:24 10° W 05:23:15 63° S 05:42:11 10° ESE visible
22 Jul - 07:20:59 10° W 07:38:25 44° SSW 07:54:21 10° SE daylight
22 Jul - 09:40:11 10° W 09:51:11 18° SW 10:00:47 10° SSW daylight
22 Jul - 23:28:51 10° S 23:36:07 21° SE 23:46:04 10° E visible
23 Jul - 01:36:07 10° SW 01:47:35 50° SSE 02:04:57 10° E visible
23 Jul - 03:47:08 10° WSW 04:02:01 64° S 04:21:27 10° ESE visible
23 Jul - 06:00:21 10° W 06:17:35 55° SSW 06:35:35 10° SE visible
23 Jul - 08:16:19 10° W 08:31:45 31° SW 08:45:33 10° SSE daylight
24 Jul - 00:19:11 10° SSW 00:28:22 35° SE 00:42:26 10° E visible
24 Jul - 02:28:37 10° WSW 02:41:14 60° SSE 02:59:55 10° E visible
24 Jul - 04:40:35 10° W 04:56:23 61° S 05:15:35 10° ESE visible
24 Jul - 06:54:42 10° W 07:11:30 43° SSW 07:28:03 10° SSE daylight
24 Jul - 09:13:46 10° W 09:24:31 18° SW 09:34:20 10° SSW daylight
24 Jul - 23:03:39 10° S 23:10:07 20° SE 23:19:02 10° E visible
25 Jul - 01:10:52 10° SW 01:21:17 49° SSE 01:37:48 10° E visible
25 Jul - 03:21:36 10° WSW 03:35:19 63° S 03:54:35 10° ESE visible
25 Jul - 05:34:22 10° W 05:50:38 53° SSW 06:09:02 10° SE visible
25 Jul - 07:49:57 10° W 08:04:53 30° SW 08:19:07 10° SSE daylight
25 Jul - 23:54:01 10° SSW 00:02:18 35° SE 00:15:17 10° E visible
26 Jul - 02:03:18 10° WSW 02:14:48 59° SSE 02:32:48 10° E visible
26 Jul - 04:14:54 10° W 04:29:34 60° S 04:48:45 10° ESE visible
26 Jul - 06:28:36 10° W 06:44:33 41° SSW 07:01:27 10° SSE daylight
26 Jul - 08:47:34 10° W 08:57:47 17° SW 09:07:32 10° SSW daylight
26 Jul - 22:38:33 10° S 22:44:14 19° SE 22:52:03 10° E visible
27 Jul - 00:45:42 10° SW 00:55:07 48° SSE 01:10:35 10° E visible
27 Jul - 02:56:10 10° WSW 03:08:43 62° S 03:27:29 10° ESE visible
27 Jul - 05:08:32 10° W 05:23:43 51° SSW 05:42:13 10° SE visible
27 Jul - 07:23:47 10° W 07:37:59 28° SW 07:52:24 10° S daylight
27 Jul - 23:28:56 10° SSW 23:36:20 34° SE 23:48:08 10° E visible
28 Jul - 01:38:03 10° WSW 01:48:29 58° S 02:05:33 10° E visible
28 Jul - 03:49:21 10° W 04:02:50 58° S 04:21:43 10° ESE visible
28 Jul - 06:02:38 10° W 06:17:36 39° SSW 06:34:35 10° SSE visible
28 Jul - 08:21:39 10° WSW 08:31:01 16° SW 08:40:19 10° SSW daylight
28 Jul - 22:13:31 10° S 22:18:26 18° SE 22:25:08 10° E visible
